Location: Blériot-Plage
(50.9575°N, 1.8224°E)
Time: 12:02:08
(UTC+00:00)

Cosmos 1606 Rocket - Pass Details

Date: 15 May 2026
Orbit: 595 x 625 km, 82.5° (Epoch: 5 June)

Event Time Altitude Azimuth Distance (km) Brightness Sun altitude
Exits shadow 21:17:14 17° 163° (SSE) 1,531 5.0 -12.5°
Maximum altitude 21:20:17 48° 94° (E) 795 3.8 -12.8°
Drops below altitude 10° 21:24:26 10° 20° (NNE) 1,955 6.6 -13.1°
Sets 21:26:42 0° 15° (NNE) 2,859 7.6 -13.3°
